Wind_Speed
29 30 30 30 29 30 30 31 32 31 31 32 32 33 33 34 34 35 36 37 37 39 40 41 42 43 43 43 44 44 43 42 41 39 37 35 35 33 34 35 36 36 35
31 31 30 29 30 30 31 32 32 33 33 33 34 34 34 34 35 35 36 37 37 38 40 41 42 42 42 42 43 43 43 42 41 39 36 33 32 30 30 32 34 35 35
31 31 30 29 29 29 30 32 33 34 34 35 36 36 36 35 35 35 36 37 38 38 39 40 40 41 41 40 40 40 40 38 36 35 34 31 28 28 28 30 31 32 33
30 30 28 27 28 29 31 32 33 33 34 34 33 33 34 34 35 35 36 37 38 38 38 39 39 40 40 39 37 36 35 34 32 32 32 31 29 28 28 29 31 31 31
26 26 25 26 28 29 31 31 31 31 30 29 29 29 30 32 34 35 36 37 38 38 38 39 39 39 39 38 37 36 35 33 32 32 33 33 32 31 30 30 31 32 32
24 24 24 26 28 29 30 30 30 29 27 27 28 28 30 32 33 34 35 37 37 38 38 39 39 40 40 40 40 39 38 37 36 35 35 35 35 34 33 33 34 34 33
22 23 24 25 27 29 30 29 28 28 28 29 30 30 31 32 33 34 35 36 36 37 37 38 39 40 41 41 42 42 41 40 39 38 38 37 37 37 36 36 36 36 35
22 22 24 26 28 29 30 29 29 30 30 31 32 33 34 35 35 35 36 36 36 36 36 36 37 39 40 41 42 42 42 42 41 41 40 39 39 38 37 36 36 36 36
23 24 26 28 29 30 30 31 32 32 33 34 35 36 36 36 37 37 37 37 36 36 36 35 35 36 37 39 40 41 42 42 42 42 41 40 39 38 37 36 36 35 34
26 27 29 30 32 32 33 34 35 35 36 37 37 38 38 37 37 37 37 37 36 36 36 35 34 34 34 35 37 38 39 40 40 40 39 38 37 36 36 34 33 32 31
30 32 33 35 36 37 38 39 39 40 40 39 39 39 39 39 39 38 38 37 37 37 36 35 34 33 32 32 33 34 35 36 36 36 35 35 34 33 32 31 29 28 27
35 36 38 39 41 43 44 44 44 44 44 43 42 42 41 41 40 40 39 37 37 37 36 35 33 31 30 30 30 30 31 31 31 32 32 31 31 30 28 27 26 25 25
40 41 42 44 46 48 49 50 50 50 49 48 46 45 45 44 42 41 39 38 37 37 36 34 32 30 28 27 26 26 26 27 27 27 27 27 26 26 25 24 24 24 25
44 46 48 50 52 53 54 55 55 55 54 53 51 49 47 46 44 42 40 38 37 36 35 34 32 29 27 26 24 22 21 21 21 21 22 23 23 24 25 24 23 24 23
48 51 53 54 56 58 59 60 59 59 58 56 54 52 50 48 46 43 41 40 37 36 34 33 31 28 26 25 23 21 19 19 18 19 20 21 22 24 24 23 23 22 21
53 56 57 59 61 62 63 64 63 63 61 61 60 58 55 52 49 46 43 41 38 36 33 32 30 27 26 24 22 20 18 16 16 17 18 20 21 22 22 21 21 20 20
59 61 63 64 65 66 66 66 68 69 68 68 67 64 60 56 52 48 45 42 39 36 33 31 29 27 25 23 20 19 17 16 15 16 17 19 20 20 20 19 18 18 18
63 65 67 69 71 73 74 75 76 76 76 75 72 69 65 60 56 52 48 44 40 37 34 31 29 26 24 22 20 18 16 15 13 12 12 13 15 16 16 15 15 16 16
71 74 76 79 80 81 82 81 79 79 78 77 74 70 67 63 58 54 50 46 42 39 34 31 29 26 23 21 19 17 14 12 11 11 10 10 11 12 13 13 14 13 12
76 78 80 81 82 83 83 82 79 77 75 72 69 65 62 59 56 53 49 46 42 40 36 32 29 25 22 20 18 15 12 10 8 8 9 10 11 12 12 11 11 11 10
80 80 81 80 80 78 77 74 69 65 62 59 57 55 53 53 52 51 49 46 43 40 37 33 29 26 22 19 17 14 11 10 10 9 9 10 10 11 11 11 10 10 10
77 75 74 71 68 64 61 57 53 50 48 46 44 42 42 44 46 47 47 46 44 41 37 33 30 26 23 20 17 14 12 12 12 12 11 11 11 11 11 11 10 10 9
66 63 60 56 50 47 45 43 41 39 39 38 37 38 38 39 41 44 46 45 44 42 38 34 31 27 24 21 18 16 15 14 14 13 12 12 12 11 11 10 9 8 8
53 48 44 40 37 37 37 37 36 36 36 36 35 35 35 35 36 39 44 46 45 42 38 34 31 27 24 22 20 19 18 17 16 15 14 13 12 11 10 9 8 8 8
41 39 37 35 34 35 35 35 36 37 36 35 34 34 33 33 33 35 42 46 46 42 39 36 32 28 25 24 22 21 20 19 18 16 15 13 12 11 10 9 9 9 8
36 36 36 36 36 36 36 36 38 38 37 36 34 34 32 30 28 32 39 45 46 42 39 36 33 30 28 26 24 23 22 21 19 17 15 13 12 11 11 10 10 10 9
Wind_Direction
289 292 293 293 294 295 298 299 300 303 307 310 311 310 308 305 302 298 294 290 287 283 280 278 277 276 274 275 274 278 280 280 282 279 275 272 271 269 265 263 262 264 265
287 289 288 289 291 293 297 300 304 309 312 314 314 313 311 308 305 301 297 293 289 285 281 279 278 277 276 275 276 277 279 280 281 279 276 273 272 269 270 265 265 265 267
284 285 286 286 288 292 297 302 306 311 314 315 316 316 315 312 309 305 301 295 290 285 281 279 277 277 277 277 277 277 278 279 279 278 277 276 273 273 272 270 269 268 269
280 282 282 282 287 292 297 301 305 309 311 313 315 316 317 317 315 311 306 300 294 289 284 280 278 277 277 276 276 276 277 277 277 278 279 280 277 277 275 274 273 273 273
276 276 278 284 288 292 295 299 302 304 307 310 313 317 318 318 317 315 311 305 298 292 287 282 279 276 274 274 273 273 275 276 276 276 277 278 278 279 277 275 275 275 274
273 274 279 284 287 289 291 294 296 298 301 306 312 317 319 320 319 318 316 312 305 297 290 284 279 276 274 272 271 271 273 273 274 274 274 275 276 277 275 274 273 274 273
274 276 279 280 281 282 284 287 291 295 299 304 310 314 318 320 321 321 320 317 311 305 297 290 283 277 274 272 270 270 271 272 272 273 273 274 274 274 273 272 271 271 271
275 275 275 275 275 277 280 286 291 297 301 305 309 313 316 318 319 321 321 320 316 311 305 298 289 282 276 273 271 270 270 270 271 272 272 273 273 272 271 270 269 269 269
279 278 276 275 276 279 284 290 296 300 304 306 308 310 312 314 316 319 320 320 318 315 310 304 297 288 281 276 273 271 271 270 271 270 270 271 270 269 268 268 267 266 265
285 283 281 282 284 287 291 295 299 302 304 305 307 307 309 310 312 315 317 318 318 317 313 308 303 295 287 281 277 274 272 271 270 269 268 267 266 265 265 264 263 261 260
285 284 285 287 290 293 296 299 301 302 303 303 305 305 306 307 309 311 314 315 317 317 315 312 306 300 292 286 282 278 274 272 269 267 265 264 263 262 262 260 257 255 252
286 287 289 291 294 296 298 300 301 301 302 303 303 304 304 305 306 308 309 312 314 315 315 314 310 304 297 293 287 282 277 273 269 264 262 260 259 256 255 252 249 246 242
288 288 290 292 294 296 297 298 299 300 301 301 302 302 302 302 303 304 305 307 310 312 314 313 312 308 303 300 294 288 281 273 267 262 258 256 253 250 246 243 241 237 237
289 289 290 291 292 293 294 296 296 298 299 298 298 298 299 299 299 299 300 302 304 307 310 311 310 308 304 303 299 293 286 276 266 259 254 250 246 242 240 239 236 231 231
289 289 289 289 290 291 292 292 293 294 294 295 295 294 295 295 295 294 295 297 299 302 304 306 307 306 305 303 299 296 288 277 267 256 251 247 241 240 236 234 229 226 231
288 287 286 287 287 288 288 288 288 288 289 291 293 292 291 291 290 290 289 291 293 295 298 301 301 301 303 302 298 293 288 277 265 256 251 244 240 238 234 232 229 228 230
288 286 284 284 283 283 284 283 284 285 286 288 289 288 287 286 285 284 283 284 286 287 290 293 295 295 296 296 294 289 283 277 266 260 254 248 240 235 235 233 232 232 230
285 283 281 281 282 283 284 284 283 284 284 285 286 285 284 282 280 278 277 277 277 278 281 285 286 287 289 290 289 286 281 273 265 259 249 239 236 235 231 230 229 225 223
283 283 283 283 283 284 284 284 284 284 284 284 284 282 280 278 275 272 270 269 269 269 271 275 277 278 280 283 284 282 276 267 259 247 237 229 225 221 216 213 211 210 213
287 287 287 287 287 287 286 286 286 285 284 284 282 280 277 274 270 265 261 259 259 259 261 265 267 268 270 273 274 274 264 252 239 225 216 207 202 197 196 197 199 200 202
291 290 290 289 289 289 288 288 288 287 286 284 283 280 275 270 264 257 251 248 247 249 251 255 256 257 259 260 263 257 242 224 208 197 190 185 182 181 182 185 187 189 193
294 294 293 292 292 292 291 291 290 289 287 286 284 281 278 272 262 251 243 239 236 239 242 245 246 247 248 248 247 237 218 203 191 185 183 184 184 183 183 184 186 189 194
298 297 297 296 295 294 293 293 292 289 288 287 286 283 280 278 266 249 236 230 228 229 234 237 237 237 237 236 233 221 206 196 188 186 186 186 185 184 184 187 191 193 194
302 301 300 298 297 295 295 294 293 291 291 290 288 286 282 279 269 249 232 222 218 222 226 228 228 227 226 225 221 211 202 194 189 187 187 185 184 186 189 193 195 195 197
306 304 302 300 299 297 295 294 292 291 292 291 289 288 284 279 270 248 227 217 212 215 219 218 218 218 217 216 212 205 199 194 193 192 191 190 192 195 198 201 202 202 203
311 308 305 304 302 300 298 295 292 291 291 291 290 288 284 278 265 241 223 213 209 210 211 207 207 208 210 210 207 203 199 196 195 195 196 197 200 204 206 209 208 208 208
Height
5875 5873 5871 5870 5867 5865 5862 5860 5857 5855 5853 5851 5849 5846 5844 5841 5838 5835 5832 5830 5828 5826 5824 5823 5822 5821 5820 5819 5818 5817 5816 5815 5813 5812 5812 5812 5813 5813 5813 5814 5815 5816 5818
5869 5868 5866 5864 5862 5859 5856 5853 5851 5849 5846 5844 5841 5839 5836 5834 5830 5827 5824 5821 5819 5817 5815 5814 5812 5811 5810 5809 5809 5807 5806 5806 5804 5803 5802 5802 5804 5803 5804 5804 5805 5807 5808
5863 5862 5860 5858 5855 5853 5850 5847 5844 5842 5839 5836 5834 5831 5828 5825 5822 5819 5816 5813 5810 5808 5806 5804 5802 5801 5800 5799 5798 5797 5797 5797 5796 5794 5793 5793 5793 5794 5795 5795 5796 5797 5799
5857 5856 5854 5852 5849 5846 5844 5841 5839 5836 5833 5830 5827 5824 5820 5817 5814 5810 5807 5803 5800 5798 5796 5794 5792 5791 5789 5789 5788 5788 5787 5787 5787 5786 5785 5785 5785 5786 5787 5788 5787 5788 5790
5851 5850 5848 5846 5843 5840 5838 5835 5833 5830 5827 5825 5822 5818 5814 5810 5806 5802 5798 5794 5790 5787 5785 5783 5782 5781 5780 5779 5779 5778 5778 5778 5778 5778 5778 5777 5777 5777 5778 5779 5780 5780 5780
5846 5844 5842 5840 5837 5835 5832 5829 5827 5825 5822 5819 5816 5812 5808 5804 5799 5795 5790 5785 5780 5777 5774 5772 5771 5770 5769 5768 5768 5768 5768 5768 5768 5769 5769 5768 5768 5768 5769 5770 5771 5771 5771
5841 5839 5837 5834 5831 5829 5826 5824 5821 5819 5816 5812 5809 5805 5801 5797 5792 5787 5782 5777 5772 5767 5764 5761 5759 5758 5757 5757 5757 5757 5757 5757 5757 5758 5758 5758 5758 5758 5759 5760 5760 5761 5761
5835 5833 5831 5828 5825 5822 5820 5817 5815 5812 5808 5804 5801 5797 5793 5789 5784 5779 5774 5769 5764 5759 5755 5751 5749 5746 5745 5745 5745 5745 5745 5745 5746 5746 5746 5747 5747 5747 5748 5749 5750 5750 5751
5829 5826 5824 5821 5818 5815 5812 5809 5806 5803 5799 5796 5792 5788 5784 5780 5776 5771 5766 5761 5756 5751 5747 5743 5739 5736 5734 5733 5733 5733 5733 5733 5733 5734 5734 5735 5736 5736 5737 5738 5739 5741 5741
5821 5818 5815 5812 5808 5805 5802 5799 5796 5793 5790 5786 5783 5779 5776 5772 5767 5763 5758 5753 5748 5743 5739 5734 5731 5727 5725 5723 5721 5721 5721 5721 5721 5721 5722 5723 5724 5725 5726 5727 5729 5730 5732
5812 5808 5805 5802 5798 5795 5792 5789 5786 5783 5780 5777 5774 5770 5766 5762 5759 5754 5750 5745 5741 5736 5731 5726 5722 5719 5715 5713 5711 5710 5710 5709 5709 5710 5711 5712 5713 5714 5716 5718 5719 5721 5723
5801 5798 5794 5791 5787 5784 5781 5778 5775 5772 5769 5766 5763 5760 5756 5753 5749 5746 5741 5737 5733 5728 5723 5719 5715 5711 5708 5705 5702 5701 5700 5699 5699 5699 5700 5701 5703 5705 5707 5709 5711 5713 5715
5791 5787 5783 5780 5776 5772 5769 5766 5763 5760 5757 5754 5752 5749 5746 5743 5739 5736 5733 5729 5725 5720 5716 5712 5708 5704 5701 5697 5694 5692 5691 5690 5690 5690 5691 5693 5695 5697 5699 5701 5704 5706 5709
5779 5775 5771 5767 5764 5760 5757 5753 5750 5746 5744 5741 5739 5737 5734 5732 5729 5726 5723 5720 5716 5713 5709 5705 5701 5698 5694 5691 5688 5686 5684 5683 5682 5683 5684 5685 5687 5690 5692 5694 5697 5699 5703
5767 5763 5759 5754 5751 5747 5743 5739 5736 5733 5730 5727 5725 5724 5722 5720 5718 5716 5713 5711 5708 5705 5701 5698 5695 5691 5688 5685 5683 5681 5678 5677 5676 5677 5678 5679 5681 5683 5686 5688 5691 5693 5696
5754 5749 5745 5740 5735 5731 5727 5724 5720 5717 5714 5712 5710 5709 5707 5706 5705 5704 5702 5700 5698 5696 5693 5691 5688 5685 5682 5680 5677 5675 5674 5672 5672 5672 5673 5674 5676 5678 5680 5683 5685 5688 5691
5739 5733 5728 5723 5718 5714 5709 5706 5703 5699 5696 5694 5692 5691 5691 5691 5690 5690 5690 5689 5688 5686 5685 5683 5681 5679 5676 5674 5672 5670 5669 5668 5667 5668 5668 5669 5670 5673 5675 5678 5680 5683 5686
5722 5716 5710 5704 5699 5694 5689 5686 5682 5679 5675 5673 5671 5670 5671 5672 5673 5674 5675 5675 5676 5675 5675 5674 5673 5672 5670 5668 5667 5665 5664 5663 5663 5663 5664 5665 5667 5669 5671 5673 5676 5679 5682
5704 5697 5690 5683 5677 5671 5666 5662 5659 5655 5652 5650 5648 5647 5648 5650 5652 5655 5657 5660 5662 5663 5664 5664 5664 5664 5663 5662 5661 5660 5659 5658 5658 5659 5660 5662 5663 5665 5667 5670 5673 5676 5678
5680 5672 5665 5658 5652 5645 5639 5636 5633 5629 5626 5624 5623 5623 5623 5626 5629 5634 5638 5642 5646 5649 5651 5654 5655 5656 5656 5656 5656 5655 5654 5654 5655 5656 5657 5659 5661 5663 5665 5668 5671 5674 5676
5655 5647 5639 5633 5626 5619 5614 5610 5607 5604 5602 5600 5600 5599 5600 5602 5606 5611 5617 5624 5630 5634 5638 5642 5645 5647 5648 5649 5650 5650 5651 5651 5652 5654 5656 5657 5659 5662 5664 5667 5669 5672 5675
5629 5620 5612 5607 5601 5595 5589 5587 5585 5583 5580 5579 5579 5579 5579 5580 5583 5588 5596 5604 5612 5619 5625 5630 5634 5638 5640 5643 5644 5645 5647 5648 5650 5652 5654 5656 5658 5661 5663 5666 5668 5671 5673
5605 5598 5591 5587 5583 5578 5573 5571 5569 5567 5565 5564 5563 5562 5562 5562 5563 5568 5576 5585 5594 5603 5611 5618 5624 5628 5632 5635 5638 5640 5643 5645 5647 5649 5652 5654 5657 5660 5662 5665 5667 5669 5671
5587 5581 5575 5572 5569 5566 5562 5559 5556 5554 5552 5550 5549 5548 5547 5547 5546 5550 5558 5567 5578 5588 5598 5607 5614 5619 5624 5628 5632 5635 5638 5641 5644 5647 5650 5652 5655 5658 5660 5663 5665 5667 5669
5575 5569 5564 5561 5558 5555 5551 5548 5545 5542 5540 5538 5536 5535 5534 5533 5533 5536 5542 5552 5562 5574 5585 5596 5604 5611 5617 5622 5626 5630 5634 5638 5641 5644 5647 5650 5653 5656 5658 5660 5663 5665 5667
5565 5560 5555 5551 5548 5544 5541 5537 5534 5530 5528 5526 5525 5523 5522 5521 5521 5523 5530 5539 5550 5562 5573 5584 5594 5603 5609 5615 5620 5626 5630 5634 5638 5641 5644 5647 5650 5653 5656 5658 5660 5662 5664